{"data":{"norad_id":67972,"epoch":"2026-09-19T23:28:49.691424Z","epoch_age_seconds":104593,"freshness":"FRESH","line1":"1 67972U 26038M   26262.97835291  .00012704  00000+0  39515-3 0  9991","line2":"2 67972  97.2851 271.3306 0001685  93.4600 266.6835 15.33445212 33012","mean_motion":15.33445212,"eccentricity":0.0001685,"inclination_deg":97.2851,"raan_deg":271.3306,"arg_perigee_deg":93.46,"mean_anomaly_deg":266.6835,"bstar":0.00039515,"rev_number":3301,"period_min":93.906191674229,"perigee_km":464.38938371224,"apogee_km":466.69570371847,"semimajor_km":6843.6795437154,"source":"CELESTRAK","updated_at":"2026-09-20T09:00:43.731285Z"}}